Location: Chino
(34.0122°N, 117.6889°W)
Time: 12:58:54
(UTC+00:00)

SJ-11-01 - Pass Details

Date: 13 February 2026
Orbit: 674 x 689 km, 98.0° (Epoch: 12 March)

Event Time Altitude Azimuth Distance (km) Brightness Sun altitude
Rises 12:46:01 0° 6° (N) 3,038 7.7 -23.6°
Reaches altitude 10° 12:48:17 10° 3° (N) 2,122 6.8 -23.1°
Enters shadow 12:52:09 51° 318° (NW) 861 4.4 -22.3°
